Simultaneous Nadir Overpasses (SNOs) Predictions

Prediction of SNOs between AQUA and METOP-C Satellite Orbit:

Table of predicted SNOs for the next 14.0 days since TLE Epoch: 10/21/2023
Index Date (AQUA) Time (AQUA) Lat,Lon (AQUA) SZA (AQUA ) Date (METOP-C) Time (METOP-C) Lat,Lon (METOP-C) SZA (METOP-C ) Distance(km) Time Diff (sec)
1 10/23/2023 05:58:22 74.76, 87.14 86.00 10/23/2023 05:57:19 74.77, 87.06 86.01 2.68 63
2 10/23/2023 06:47:46 -74.82,-105.37 93.93 10/23/2023 06:48:00 -74.85,-105.40 93.91 2.87 14
3 10/23/2023 07:37:22 75.39, 60.76 86.65 10/23/2023 07:38:28 75.37, 63.46 86.65 75.88 66
4 10/25/2023 23:00:37 -74.81, 11.48 93.02 10/25/2023 22:59:40 -74.79, 11.52 93.04 2.89 57
5 10/25/2023 23:50:02 74.83, 179.09 87.02 10/25/2023 23:50:18 74.83, 178.97 87.02 3.52 16
6 10/28/2023 16:02:52 74.81, -64.03 87.90 10/28/2023 16:01:58 74.80, -64.03 87.89 1.10 54
7 10/28/2023 16:52:16 -74.86, 103.47 92.03 10/28/2023 16:52:39 -74.89, 103.55 92.01 3.28 23
8 10/31/2023 09:05:04 -74.83,-139.60 91.19 10/31/2023 09:04:20 -74.80,-139.60 91.22 2.92 44
9 10/31/2023 09:54:29 74.85, 27.98 88.85 10/31/2023 09:54:57 74.88, 27.96 88.88 2.88 28
10 11/03/2023 02:07:15 74.81, 144.93 89.66 11/03/2023 02:06:37 74.83, 144.90 89.68 2.01 38
11 11/03/2023 02:56:39 -74.86, -47.54 90.28 11/03/2023 02:57:19 -74.87, -47.64 90.27 3.45 40



Historial Predications of SNOs between AQUA and METOP-C
